Location: Newark
(41.6500°N, 71.4833°W)
Time: 00:32:45
(UTC+00:00)

Courier 1B - All Passes

Search period start: 20 January 2020 00:00
Search period end: 30 January 2020 00:00
Orbit: 962 x 1209 km, 28.3° (Epoch: 19 January)

Date Brightness Start Highest point End Pass type
(mag) Time Alt. Az. Time Alt. Az. Time Alt. Az.
20 Jan - 07:39:10 10° SSE 07:40:08 10° SSE 07:41:05 10° SE visible
20 Jan - 09:27:23 10° SSW 09:33:10 23° SSE 09:39:03 10° ESE visible
20 Jan - 11:19:58 10° WSW 11:26:33 30° S 11:33:10 10° ESE visible
20 Jan - 13:13:56 10° WSW 13:19:58 24° SSW 13:25:55 10° SE daylight
20 Jan - 15:10:46 10° SW 15:13:03 11° SSW 15:15:18 10° S daylight
21 Jan - 08:34:20 10° SSW 08:39:30 20° SSE 08:44:48 10° ESE visible
21 Jan - 10:26:22 10° SW 10:32:48 30° S 10:39:21 10° ESE visible
21 Jan - 12:19:56 10° WSW 12:26:15 27° S 12:32:33 10° SE daylight
21 Jan - 14:15:21 10° WSW 14:19:28 15° SSW 14:23:33 10° S daylight
22 Jan - 07:41:38 10° SSW 07:45:54 16° SSE 07:50:17 10° ESE visible
22 Jan - 09:32:52 10° SW 09:39:05 28° S 09:45:27 10° ESE visible
22 Jan - 11:26:05 10° WSW 11:32:31 29° S 11:39:02 10° SE visible
22 Jan - 13:20:45 10° WSW 13:25:50 19° SSW 13:30:54 10° SSE daylight
23 Jan - 06:49:34 10° S 06:52:21 12° SSE 06:55:11 10° SE visible
23 Jan - 08:39:33 10° SW 08:45:23 25° SSE 08:51:26 10° ESE visible
23 Jan - 10:32:21 10° WSW 10:38:47 30° S 10:45:21 10° SE visible
23 Jan - 12:26:29 10° WSW 12:32:09 22° SSW 12:37:51 10° SSE daylight
24 Jan - 07:46:25 10° SSW 07:51:45 22° SSE 07:57:16 10° ESE visible
24 Jan - 09:38:44 10° SW 09:45:03 30° S 09:51:34 10° ESE visible
24 Jan - 11:32:28 10° WSW 11:38:28 25° SSW 11:44:33 10° SE visible
24 Jan - 13:28:38 10° SW 13:31:38 12° SSW 13:34:38 10° S daylight
25 Jan - 06:53:33 10° SSW 06:58:10 18° SSE 07:02:56 10° ESE visible
25 Jan - 08:45:15 10° SW 08:51:21 28° S 08:57:42 10° ESE visible
25 Jan - 10:38:36 10° WSW 10:44:45 27° S 10:51:04 10° SE visible
25 Jan - 12:33:39 10° WSW 12:38:00 16° SSW 12:42:24 10° SSE daylight
26 Jan - 06:01:06 10° S 06:04:37 14° SSE 06:08:14 10° SE night (unlit)
26 Jan - 07:51:54 10° SW 07:57:41 26° S 08:03:44 10° ESE visible
26 Jan - 09:44:52 10° WSW 09:51:02 28° S 09:57:26 10° SE visible
26 Jan - 11:39:15 10° WSW 11:44:21 19° SSW 11:49:32 10° SSE daylight
27 Jan - 05:09:52 10° SSE 05:11:08 10° SSE 05:12:24 10° SE night (unlit)
27 Jan - 06:58:43 10° SW 07:04:04 23° SSE 07:09:39 10° ESE visible
27 Jan - 08:51:15 10° WSW 08:57:21 29° S 09:03:42 10° SE visible
27 Jan - 10:45:10 10° WSW 10:50:41 22° SSW 10:56:22 10° SSE visible
28 Jan - 06:05:43 10° SSW 06:10:30 20° SSE 06:15:27 10° ESE night (unlit)
28 Jan - 07:57:46 10° SW 08:03:40 28° S 08:09:52 10° ESE visible
28 Jan - 09:51:16 10° WSW 09:57:00 25° SSW 10:02:58 10° SE visible
28 Jan - 11:47:03 10° SW 11:50:12 13° SSW 11:53:24 10° S daylight
29 Jan - 05:13:02 10° SSW 05:16:59 16° SSE 05:21:02 10° ESE night (unlit)
29 Jan - 07:04:23 10° SW 07:10:02 27° S 07:15:57 10° ESE visible
29 Jan - 08:57:32 10° WSW 09:03:21 26° S 09:09:24 10° SE visible
29 Jan - 10:52:19 10° WSW 10:56:35 16° SSW 11:00:57 10° SSE visible
